Regional Weather Roundup
Issued by NWS

Home | Current Version | Previous Version | Graphics & Text | Print | Product List | Glossary On
Versions: 1 2 3 4 5 6 7 8 9 10 11 12 13 14 15 16 17 18 19 20 21 22 23 24 25 26 27 28 29 30 31 32 33 34 35 36 37 38 39 40 41 42 43 44 45 46 47 48 49 50
000
ASUS43 KLOT 271858
RWRIL

ILLINOIS REGIONAL WEATHER ROUNDUP
NATIONAL WEATHER SERVICE CHICAGO/ROMEOVILLE IL
100 PM CST FRI FEB 27 2015

NOTE: "FAIR" INDICATES FEW OR NO CLOUDS BELOW 12,000 FEET WITH NO
SIGNIFICANT WEATHER AND/OR OBSTRUCTIONS TO VISIBILITY.

* THESE STATIONS ARE NOT UNDER NWS QUALITY CONTROL. THEY ALSO MAY NOT
  REPORT WEATHER SUCH AS PRECIPITATION OR FOG.

ILZ001-002-007-009-015-016-024-272000-
NORTHWEST ILLINOIS

CITY           SKY/WX    TMP DP  RH WIND       PRES   REMARKS
MOLINE         SUNNY     13  -4  46 CALM      30.64F
$$

ILZ003-004-008-010-011-017-018-272000-
NORTH CENTRAL ILLINOIS

CITY           SKY/WX    TMP DP  RH WIND       PRES   REMARKS
ROCKFORD       NOT AVBL
$$

ILZ005-006-012>014-019>023-272000-
NORTHEAST ILLINOIS

CITY           SKY/WX    TMP DP  RH WIND       PRES   REMARKS
CHICAGO-OHARE  SUNNY     13  -5  44 SW8       30.59F WCI   2
CHICAGO-MIDWAY NOT AVBL
AURORA         SUNNY     10  -1  61 W9        30.62F WCI  -3
WAUKEGAN       NOT AVBL
DUPAGE AIRPORT MIX PCPN  12  -3  51 W12       30.60F WCI  -2
WHEELING       SUNNY     16  -6  37 W8        30.60F WCI   5
NORTHERLY ISL    N/A     18  -4  37 W7          N/A  WCI   9
$$

LMZ740>746-272000-
SOUTHERN LAKE MICHIGAN

STATION/POSITION SKY/WX   TEMP    WIND        PRES    VSBY  WAVE
                          AIR SEA DIR/SP/G                  HT/PER
                          (F)     (DEG/KT/KT) (MB)    (MI)  (FT/S)
WAUKEGAN HARBOR            14     260/  4/ 11   N/A
HARRISON CRIB              14     280/  9/ 12   N/A
BURNHAM HARBOR             17     250/  9/ 12   N/A
CALUMET HARBOR             16     210/  7/ 13 1035.0F
MICHIGAN CITY              13     240/ 10/ 12   N/A
$$

ILZ025>027-034>036-040-047-049-050-058-095>099-272000-
WEST-CENTRAL ILLINOIS

CITY           SKY/WX    TMP DP  RH WIND       PRES   REMARKS
$$

ILZ028>032-037-038-041>044-048-051>054-059>061-272000-
CENTRAL ILLINOIS

CITY           SKY/WX    TMP DP  RH WIND       PRES   REMARKS
PEORIA         NOT AVBL
SPRINGFIELD    SUNNY      8   0  69 SW7       30.65F WCI  -3
TAYLORVILLE    NOT AVBL
$$

ILZ033-039-045-046-055>057-062-063-272000-
EAST-CENTRAL ILLINOIS

CITY           SKY/WX    TMP DP  RH WIND       PRES   REMARKS
$$

ILZ079-100>102-272000-
SOUTHWEST ILLINOIS

CITY           SKY/WX    TMP DP  RH WIND       PRES   REMARKS
ALTON          SUNNY     14  -6  41 N7        30.66F WCI   4
$$

ILZ064>066-069>071-074>076-080>082-084>086-088>090-092>094-272000-
SOUTH-CENTRAL ILLINOIS

CITY           SKY/WX    TMP DP  RH WIND       PRES   REMARKS
CARBONDALE     NOT AVBL
MARION         MOSUNNY   21   9  58 N5        30.62F WCI  15
$$

ILZ067-068-072-073-078-083-087-091-272000-
SOUTHEAST ILLINOIS

CITY           SKY/WX    TMP DP  RH WIND       PRES   REMARKS
$$

ABBREVIATIONS USED IN REMARKS
   TC - TEMPERATURE IN CELSIUS
  WCI - WIND CHILL INDEX
   HX - HEAT INDEX
  VSB - VISIBILITY
$$




USA.gov is the U.S. government's official web portal to all federal, state and local government web resources and services.